Location: Makanda
(37.6176°N, 89.2090°W)
Time: 14:50:00
(UTC+00:00)

SJ-11-01 - Pass Details

Date: 23 September 2019
Orbit: 684 x 702 km, 98.0° (Epoch: 20 October)

Event Time Altitude Azimuth Distance (km) Brightness Sun altitude
Exits shadow 01:33:27 23° 165° (SSE) 1,453 5.6 -20.3°
Maximum altitude 01:36:23 87° 81° (E) 707 4.2 -20.8°
Drops below altitude 10° 01:41:10 10° 348° (NNW) 2,169 7.2 -21.7°
Sets 01:43:25 0° 348° (NNW) 3,089 8.0 -22.1°
